Location: Newport
(44.6370°N, 124.0520°W)
Time: 23:05:53
(UTC-07:00)

Tiangong 1 - Pass Details

Date: 14 October 2017
Orbit: 292 x 319 km, 42.8° (Epoch: 22 October)

Event Time Altitude Azimuth Distance (km) Brightness Sun altitude
Rises 20:05:06 0° 272° (W) 2,043 6.5 -17.2°
Reaches altitude 10° 20:07:26 10° 252° (WSW) 1,205 4.6 -17.6°
Maximum altitude 20:09:25 18° 205° (SSW) 846 3.0 -18.0°
Enters shadow 20:09:53 17° 190° (S) 869 2.9 -18.0°
